| time (UTC) | temp F | wind direction | speed MPH | gust MPH | rain 1hr in | rain 24hr in | rain mn in | humidity % | barometer mb |
| 20260507140042 | 48 | 260 | 2.0 | 7.0 | 0.00 | 0.03 | 0.00 | 74 | 1015.0 |
| 20260507134544 | 47 | 248 | 2.0 | 6.0 | 0.00 | 0.07 | 0.00 | 76 | 1015.2 |
| 20260507133048 | 45 | 141 | 2.0 | 7.0 | 0.00 | 0.07 | 0.00 | 78 | 1015.3 |
| 20260507131545 | 44 | 234 | 1.0 | 10.0 | 0.00 | 0.07 | 0.00 | 81 | 1015.5 |
| 20260507130043 | 42 | 224 | 1.0 | 5.0 | 0.00 | 0.07 | 0.00 | 82 | 1015.5 |
| 20260507124543 | 40 | 218 | 1.0 | 5.0 | 0.00 | 0.08 | 0.00 | 85 | 1015.6 |
| 20260507123041 | 38 | 158 | 0.0 | 4.0 | 0.00 | 0.08 | 0.00 | 88 | 1015.9 |
| 20260507121540 | 36 | 205 | 0.0 | 2.0 | 0.00 | 0.08 | 0.00 | 90 | 1015.9 |
| 20260507120048 | 36 | 218 | 0.0 | 3.0 | 0.00 | 0.08 | 0.00 | 90 | 1015.8 |
| 20260507114547 | 36 | 205 | 0.0 | 2.0 | 0.00 | 0.09 | 0.00 | 90 | 1015.8 |
| 20260507113044 | 36 | 298 | 0.0 | 1.0 | 0.00 | 0.09 | 0.00 | 91 | 1015.9 |
| 20260507111549 | 36 | 0 | 0.0 | 1.0 | 0.00 | 0.09 | 0.00 | 91 | 1016.0 |
| 20260507110042 | 36 | 261 | 0.0 | 1.0 | 0.00 | 0.09 | 0.00 | 90 | 1016.2 |
| 20260507104540 | 36 | 0 | 0.0 | 1.0 | 0.00 | 0.09 | 0.00 | 89 | 1016.5 |
| 20260507103045 | 37 | 155 | 0.0 | 2.0 | 0.00 | 0.09 | 0.00 | 89 | 1016.4 |
| 20260507101549 | 38 | 203 | 0.0 | 1.0 | 0.00 | 0.09 | 0.00 | 88 | 1016.4 |
| 20260507100045 | 38 | 250 | 0.0 | 2.0 | 0.00 | 0.09 | 0.00 | 89 | 1016.7 |
| 20260507094547 | 38 | 258 | 0.0 | 2.0 | 0.00 | 0.09 | 0.00 | 89 | 1016.9 |
| 20260507093045 | 38 | 290 | 0.0 | 3.0 | 0.00 | 0.09 | 0.00 | 89 | 1017.1 |
| 20260507091542 | 38 | 297 | 0.0 | 2.0 | 0.00 | 0.09 | 0.00 | 89 | 1017.3 |
| 20260507090039 | 39 | 277 | 0.0 | 4.0 | 0.00 | 0.09 | 0.00 | 88 | 1017.4 |
| 20260507084546 | 39 | 236 | 0.0 | 2.0 | 0.00 | 0.12 | 0.00 | 88 | 1017.4 |
| 20260507083044 | 39 | 0 | 0.0 | 1.0 | 0.00 | 0.12 | 0.00 | 88 | 1017.4 |
| 20260507081543 | 39 | 202 | 0.0 | 2.0 | 0.00 | 0.12 | 0.00 | 89 | 1017.6 |
| 20260507080043 | 39 | 295 | 0.0 | 2.0 | 0.00 | 0.12 | 0.00 | 89 | 1017.8 |
| 20260507074541 | 39 | 124 | 0.0 | 1.0 | 0.00 | 0.21 | 0.00 | 89 | 1018.1 |
| 20260507073052 | 39 | 0 | 0.0 | 1.0 | 0.00 | 0.21 | 0.00 | 88 | 1018.3 |
| 20260507071539 | 40 | 288 | 0.0 | 1.0 | 0.00 | 0.21 | 0.00 | 88 | 1018.5 |
| 20260507070051 | 41 | 110 | 0.0 | 1.0 | 0.00 | 0.21 | 0.00 | 87 | 1018.6 |
| 20260507064548 | 41 | 245 | 0.0 | 2.0 | 0.00 | 0.23 | 0.00 | 87 | 1018.7 |
| 20260507063049 | 41 | 289 | 0.0 | 2.0 | 0.00 | 0.23 | 0.00 | 87 | 1018.9 |
| 20260507061544 | 41 | 0 | 0.0 | 2.0 | 0.00 | 0.23 | 0.00 | 87 | 1019.1 |
| 20260507060051 | 42 | 0 | 0.0 | 2.0 | 0.00 | 0.23 | 0.00 | 87 | 1019.2 |
| 20260507054547 | 43 | 297 | 0.0 | 3.0 | 0.00 | 0.25 | 0.00 | 86 | 1019.3 |
| 20260507053042 | 43 | 262 | 0.0 | 4.0 | 0.00 | 0.25 | 0.00 | 85 | 1019.4 |
| 20260507051537 | 43 | 296 | 0.0 | 2.0 | 0.00 | 0.25 | 0.00 | 85 | 1019.4 |
| 20260507050045 | 44 | 284 | 0.0 | 2.0 | 0.00 | 0.25 | 0.00 | 85 | 1019.4 |
| 20260507044555 | 44 | 251 | 1.0 | 4.0 | 0.00 | 0.25 | 0.25 | 84 | 1019.5 |
| 20260507043048 | 45 | 262 | 0.0 | 3.0 | 0.00 | 0.25 | 0.25 | 84 | 1019.6 |
| 20260507041545 | 45 | 306 | 0.0 | 4.0 | 0.00 | 0.25 | 0.25 | 82 | 1019.7 |
| 20260507040045 | 46 | 286 | 1.0 | 5.0 | 0.00 | 0.25 | 0.25 | 82 | 1019.6 |
| 20260507034545 | 46 | 247 | 1.0 | 5.0 | 0.00 | 0.25 | 0.25 | 80 | 1019.5 |
| 20260507033044 | 47 | 268 | 1.0 | 2.0 | 0.00 | 0.25 | 0.25 | 78 | 1019.5 |
| 20260507031550 | 48 | 270 | 0.0 | 4.0 | 0.00 | 0.25 | 0.25 | 76 | 1019.5 |
| 20260507030050 | 48 | 281 | 0.0 | 3.0 | 0.00 | 0.25 | 0.25 | 76 | 1019.4 |
| 20260507024549 | 49 | 253 | 1.0 | 4.0 | 0.00 | 0.27 | 0.25 | 75 | 1019.3 |
| 20260507023050 | 49 | 288 | 0.0 | 2.0 | 0.00 | 0.27 | 0.25 | 75 | 1019.1 |
| 20260507021543 | 49 | 257 | 0.0 | 2.0 | 0.00 | 0.27 | 0.25 | 74 | 1018.9 |
| 20260507020051 | 50 | 0 | 0.0 | 4.0 | 0.00 | 0.27 | 0.25 | 73 | 1018.8 |
| 20260507014546 | 50 | 304 | 0.0 | 3.0 | 0.00 | 0.35 | 0.25 | 71 | 1018.7 |
| 20260507013056 | 51 | 0 | 0.0 | 1.0 | 0.00 | 0.35 | 0.25 | 71 | 1018.6 |
| 20260507011557 | 51 | 0 | 0.0 | 1.0 | 0.00 | 0.35 | 0.25 | 71 | 1018.7 |
| 20260507010053 | 51 | 345 | 0.0 | 1.0 | 0.00 | 0.35 | 0.25 | 70 | 1018.7 |
| 20260507004550 | 52 | 253 | 0.0 | 3.0 | 0.00 | 0.37 | 0.25 | 67 | 1018.5 |
| 20260507003047 | 53 | 288 | 0.0 | 3.0 | 0.00 | 0.37 | 0.25 | 61 | 1018.5 |
| 20260507001545 | 53 | 300 | 1.0 | 4.0 | 0.00 | 0.37 | 0.25 | 61 | 1018.5 |
| 20260507000051 | 53 | 259 | 1.0 | 4.0 | 0.00 | 0.37 | 0.25 | 61 | 1018.6 |
| 20260506234543 | 54 | 269 | 1.0 | 3.0 | 0.00 | 0.37 | 0.25 | 59 | 1018.6 |
| 20260506233052 | 54 | 296 | 0.0 | 3.0 | 0.00 | 0.37 | 0.25 | 59 | 1018.7 |
| 20260506231544 | 55 | 248 | 1.0 | 4.0 | 0.00 | 0.37 | 0.25 | 55 | 1018.6 |
| 20260506230050 | 56 | 285 | 1.0 | 3.0 | 0.00 | 0.37 | 0.25 | 55 | 1018.5 |
| 20260506224559 | 55 | 278 | 1.0 | 4.0 | 0.00 | 0.37 | 0.25 | 57 | 1018.6 |
| 20260506223044 | 55 | 249 | 1.0 | 5.0 | 0.00 | 0.37 | 0.25 | 57 | 1018.6 |
| 20260506221543 | 55 | 294 | 1.0 | 4.0 | 0.00 | 0.37 | 0.25 | 56 | 1018.6 |
| 20260506220045 | 55 | 283 | 0.0 | 4.0 | 0.00 | 0.37 | 0.25 | 58 | 1018.6 |
| 20260506214559 | 55 | 309 | 0.0 | 4.0 | 0.00 | 0.37 | 0.25 | 58 | 1018.8 |
| 20260506213042 | 54 | 207 | 0.0 | 2.0 | 0.00 | 0.37 | 0.25 | 58 | 1019.0 |
| 20260506211538 | 53 | 289 | 1.0 | 3.0 | 0.00 | 0.37 | 0.25 | 59 | 1019.2 |
| 20260506210044 | 54 | 308 | 0.0 | 3.0 | 0.00 | 0.37 | 0.25 | 58 | 1019.2 |
| 20260506204544 | 55 | 120 | 0.0 | 3.0 | 0.00 | 0.37 | 0.25 | 56 | 1019.3 |
| 20260506203047 | 55 | 1 | 0.0 | 4.0 | 0.00 | 0.37 | 0.25 | 57 | 1019.4 |
| 20260506201544 | 57 | 240 | 1.0 | 4.0 | 0.00 | 0.37 | 0.25 | 54 | 1019.6 |
| 20260506200038 | 55 | 154 | 1.0 | 4.0 | 0.00 | 0.37 | 0.25 | 58 | 1019.6 |
| 20260506194558 | 55 | 136 | 3.0 | 6.0 | 0.00 | 0.37 | 0.25 | 54 | 1019.8 |
| 20260506193043 | 55 | 121 | 3.0 | 6.0 | 0.00 | 0.37 | 0.25 | 57 | 1019.9 |
| 20260506191542 | 54 | 302 | 0.0 | 3.0 | 0.00 | 0.37 | 0.25 | 57 | 1020.1 |
| 20260506190044 | 54 | 307 | 1.0 | 3.0 | 0.00 | 0.37 | 0.25 | 64 | 1020.3 |
| 20260506184542 | 51 | 123 | 1.0 | 4.0 | 0.00 | 0.37 | 0.25 | 62 | 1020.4 |
| 20260506183038 | 52 | 153 | 0.0 | 6.0 | 0.00 | 0.37 | 0.25 | 65 | 1020.5 |
| 20260506181547 | 53 | 82 | 1.0 | 5.0 | 0.00 | 0.37 | 0.25 | 63 | 1020.6 |
| 20260506180049 | 52 | 309 | 1.0 | 4.0 | 0.00 | 0.37 | 0.25 | 65 | 1020.6 |
| 20260506174542 | 51 | 174 | 2.0 | 5.0 | 0.00 | 0.37 | 0.25 | 68 | 1020.8 |
| 20260506173048 | 50 | 0 | 1.0 | 4.0 | 0.00 | 0.37 | 0.25 | 66 | 1020.7 |
| 20260506171551 | 49 | 122 | 1.0 | 5.0 | 0.00 | 0.37 | 0.25 | 72 | 1020.6 |
| 20260506170049 | 49 | 97 | 1.0 | 6.0 | 0.00 | 0.37 | 0.25 | 74 | 1020.5 |
| 20260506164543 | 48 | 141 | 1.0 | 4.0 | 0.00 | 0.37 | 0.25 | 75 | 1020.6 |
| 20260506163048 | 48 | 127 | 1.0 | 5.0 | 0.00 | 0.37 | 0.25 | 79 | 1020.7 |
| 20260506161543 | 46 | 180 | 2.0 | 4.0 | 0.00 | 0.37 | 0.25 | 78 | 1020.8 |
| 20260506160042 | 45 | 148 | 1.0 | 3.0 | 0.00 | 0.37 | 0.25 | 78 | 1020.9 |
| 20260506154601 | 45 | 100 | 1.0 | 4.0 | 0.01 | 0.37 | 0.25 | 82 | 1020.6 |
| 20260506153045 | 45 | 72 | 1.0 | 2.0 | 0.01 | 0.37 | 0.25 | 83 | 1020.5 |
| 20260506151551 | 44 | 98 | 0.0 | 2.0 | 0.02 | 0.37 | 0.25 | 85 | 1020.5 |
| 20260506150050 | 44 | 77 | 0.0 | 2.0 | 0.03 | 0.37 | 0.25 | 86 | 1020.5 |
| 20260506144555 | 44 | 77 | 0.0 | 1.0 | 0.02 | 0.36 | 0.24 | 87 | 1020.5 |
| 20260506143050 | 43 | 5 | 0.0 | 1.0 | 0.03 | 0.36 | 0.24 | 86 | 1020.5 |
| 20260506141549 | 43 | 38 | 0.0 | 2.0 | 0.04 | 0.35 | 0.23 | 89 | 1020.4 |